Wind_Speed
72 71 68 71 74 72 70 66 63 67 65 65 64 66 65 67 66 67 66 66 66 61 62 61 58 58 59 58 58 62 62 59 54 51 47 45 48 49 47 48 49 47 46 47 47
75 76 75 70 67 71 74 70 69 69 71 70 70 67 70 70 70 71 69 65 66 62 57 58 60 57 58 59 60 60 59 56 54 53 51 49 46 49 48 48 48 51 53 47 47
76 81 78 78 70 68 68 70 70 73 72 68 70 70 72 73 72 76 74 67 61 61 64 57 55 54 57 59 55 55 54 52 52 51 49 49 47 50 51 49 50 49 51 51 51
70 75 78 75 74 74 73 74 73 72 75 73 70 72 70 71 71 74 74 68 66 61 58 58 57 58 55 54 54 53 55 56 51 49 49 48 51 50 48 49 49 51 52 50 51
75 72 73 80 76 75 74 75 78 75 75 74 71 68 65 67 62 64 61 63 62 62 60 57 58 57 57 54 54 51 54 54 55 56 55 54 54 51 51 51 53 53 51 49 50
73 69 71 73 81 78 73 72 72 70 69 69 68 66 61 62 62 63 63 63 64 65 61 62 64 63 60 59 57 58 58 56 59 60 60 62 58 56 56 58 62 60 54 53 52
79 72 68 66 67 69 68 63 61 65 64 63 63 62 64 66 67 68 69 67 69 67 66 67 64 65 60 61 61 58 61 66 62 63 62 63 60 62 63 61 62 61 56 57 57
82 73 71 67 65 63 64 66 64 66 67 67 70 69 70 66 67 70 69 69 72 68 67 65 67 66 60 59 61 60 64 68 70 71 71 68 64 61 64 63 64 64 61 62 60
77 80 76 70 70 71 72 76 75 67 67 70 73 73 69 70 71 73 72 75 76 71 69 69 68 70 68 65 66 64 67 71 74 73 74 75 66 63 66 67 67 68 65 66 65
90 82 86 81 82 81 83 81 83 81 73 71 70 68 71 75 75 77 77 79 79 74 68 66 67 74 73 69 68 70 73 73 77 75 72 69 65 65 69 70 72 72 69 68 69
92 85 83 89 92 93 92 88 81 74 76 74 78 80 80 77 77 84 85 80 77 76 73 73 70 75 73 75 73 75 80 83 85 83 76 72 69 67 66 68 70 69 69 70 71
95 91 92 88 90 92 89 93 84 85 77 81 83 85 83 85 84 83 86 82 81 78 76 75 77 78 80 82 81 83 86 89 90 87 76 72 69 70 68 68 69 69 71 70 70
97 97 94 92 94 96 97 95 88 90 88 90 88 91 90 88 86 86 86 86 85 83 84 81 83 84 84 86 90 91 96 97 90 80 73 70 70 68 69 71 72 73 71 71 71
101 105 102 102 99 102 100 99 95 97 98 90 94 92 98 94 91 92 89 89 89 89 89 87 90 90 89 93 95 100 98 92 82 78 77 73 73 74 70 73 73 73 73 74 74
109 109 111 110 105 108 101 103 100 102 100 101 96 95 92 95 95 96 95 95 96 94 93 93 94 95 99 101 100 98 91 87 83 80 80 78 76 78 74 77 78 77 77 80 83
114 115 115 115 114 107 111 112 111 110 106 100 98 99 99 97 99 95 98 101 99 99 101 104 101 102 104 106 103 95 91 89 85 86 84 84 82 81 79 83 85 85 85 84 86
116 118 120 117 118 114 115 115 115 111 105 109 103 104 107 105 104 103 102 103 103 107 105 104 107 105 107 105 99 96 91 93 93 91 90 87 88 86 85 89 90 90 91 90 89
123 118 120 116 118 119 114 115 114 108 108 113 109 105 109 107 106 108 105 106 108 109 110 112 112 110 106 104 102 98 98 98 98 97 96 93 92 93 89 91 93 95 97 97 97
129 122 120 122 122 121 121 116 109 107 106 108 110 110 108 108 110 110 112 114 113 111 113 112 112 109 108 105 105 103 103 103 105 102 99 97 93 91 94 96 98 99 101 101 101
126 124 124 126 125 122 119 117 114 112 111 115 114 114 112 112 110 111 112 113 116 112 111 112 110 108 107 109 108 110 111 110 110 108 106 100 101 103 101 103 105 104 103 104 104
132 130 127 128 129 126 124 123 121 120 120 121 122 121 117 117 115 116 117 117 116 116 115 115 112 110 108 110 110 109 111 110 111 113 114 112 105 103 100 102 104 103 102 103 107
137 136 133 134 135 130 124 126 127 128 125 125 124 122 121 121 121 121 120 120 121 122 121 120 118 114 114 114 111 113 108 109 109 106 107 103 85 89 88 91 93 94 96 98 100
141 138 138 139 137 134 132 130 130 128 127 126 126 124 124 126 125 125 127 127 125 124 123 122 120 116 115 118 118 111 106 99 92 90 86 85 71 76 75 79 80 81 82 83 84
132 137 140 138 137 137 135 134 131 130 133 133 132 131 129 126 127 127 125 124 126 126 125 122 120 119 117 114 108 100 93 86 86 86 83 77 75 68 72 67 67 65 67 69 71
120 120 124 124 125 131 132 128 130 127 130 131 131 132 131 127 128 127 129 129 126 125 124 122 118 112 104 100 102 97 90 86 86 82 82 71 77 63 74 63 62 62 62 63 65
109 105 105 112 114 115 115 117 119 118 117 119 116 118 119 116 117 118 117 114 111 110 108 106 105 101 92 93 91 84 76 77 79 76 77 74 69 79 69 68 65 64 63 62 62
96 95 95 97 99 101 101 107 108 108 107 106 105 105 103 105 104 101 100 100 96 94 94 93 92 89 81 85 81 75 70 71 69 70 72 70 68 72 70 68 68 68 65 64 64
Wind_Direction
261 262 263 264 261 262 265 263 265 268 269 270 269 270 272 276 275 275 276 279 279 281 285 286 285 283 284 281 283 284 283 286 284 284 282 283 281 279 279 281 281 277 277 277 277
258 261 262 263 263 261 261 266 263 268 269 269 273 273 272 274 274 275 277 277 278 281 286 284 287 284 284 282 282 284 283 282 280 279 281 282 280 280 283 281 279 279 280 276 272
259 261 262 261 260 262 263 265 266 267 269 271 273 272 273 273 274 274 276 276 275 280 285 288 284 280 279 280 282 285 284 281 279 279 281 282 278 281 283 278 276 279 280 278 272
270 264 264 261 261 264 262 263 267 271 270 274 275 272 270 275 275 274 276 277 276 278 284 287 282 281 284 281 282 285 287 287 282 281 283 282 282 281 282 280 276 277 276 273 269
273 275 264 261 259 261 263 265 269 273 274 274 274 272 274 273 277 276 277 278 275 277 281 286 283 281 279 282 286 287 289 289 291 292 290 287 283 280 281 281 280 278 274 272 269
275 276 266 264 260 260 264 267 265 267 272 271 269 270 272 274 275 275 275 276 276 278 282 287 284 281 280 283 286 285 287 290 292 293 291 287 286 282 279 280 281 280 277 274 272
277 274 268 266 264 258 261 261 264 267 272 267 265 267 275 275 278 279 279 278 280 282 284 284 287 285 283 282 283 287 289 286 291 299 294 288 284 279 277 276 276 276 276 274 275
275 273 268 271 264 258 263 268 267 277 268 261 267 274 276 277 278 279 279 279 281 280 280 285 286 287 287 284 284 286 288 287 289 293 298 292 282 277 277 275 274 275 275 274 272
267 270 266 264 265 260 266 268 275 277 271 265 268 271 278 278 277 276 278 280 280 280 279 279 284 285 284 287 291 292 291 291 289 293 296 297 287 284 280 277 277 276 274 274 273
268 266 263 258 263 264 268 269 275 275 272 269 270 274 276 276 277 275 275 277 279 279 280 280 282 281 283 286 288 289 292 292 293 294 292 288 283 282 281 280 278 277 276 276 275
264 259 261 261 264 269 271 267 271 269 268 270 272 273 273 274 274 277 279 278 280 276 277 280 282 282 285 288 288 288 288 289 288 289 290 282 281 281 284 279 279 279 279 280 276
259 260 263 261 265 266 263 264 263 264 262 267 270 275 275 276 276 279 279 278 279 279 279 279 280 282 284 285 286 286 288 288 289 291 285 278 281 281 284 282 279 278 281 281 276
260 261 261 261 263 263 264 264 263 260 261 269 268 271 272 275 273 275 275 278 278 281 281 282 282 282 282 284 284 287 290 290 290 286 281 282 283 286 285 284 283 284 284 279 275
257 258 257 259 262 262 264 264 263 263 262 263 268 272 270 270 272 274 274 275 278 280 280 281 280 281 281 283 284 285 287 288 286 285 284 284 285 284 285 284 282 282 279 276 273
259 258 258 259 261 259 259 263 261 263 265 264 268 267 267 270 271 272 275 277 277 278 280 279 277 280 280 280 283 284 285 284 284 283 284 284 285 285 286 285 281 278 277 276 273
259 257 259 260 259 259 260 260 262 261 263 266 265 261 264 265 268 269 271 272 275 275 274 275 276 278 278 281 282 283 283 281 280 282 283 282 284 284 284 283 282 280 278 278 277
259 257 260 260 262 260 260 259 260 261 263 263 263 263 262 264 264 264 268 270 269 272 272 275 276 277 280 281 280 280 280 281 279 279 281 282 283 283 282 280 280 280 278 278 278
261 259 261 261 260 263 262 262 260 264 263 263 265 265 262 263 263 265 266 265 269 270 272 274 274 276 278 279 280 280 281 281 282 281 279 280 283 282 281 281 281 280 280 279 279
260 259 259 259 260 262 263 262 264 263 263 265 265 264 265 268 265 267 268 267 268 268 270 271 274 277 278 281 284 284 284 284 284 283 281 281 281 281 281 280 280 280 279 279 281
256 256 257 257 260 259 259 261 265 266 265 265 267 269 269 269 270 268 268 269 271 271 271 271 273 276 280 281 283 282 283 284 284 283 283 281 280 282 279 278 279 279 278 278 278
256 256 256 257 257 258 263 263 264 264 264 265 267 269 270 269 270 271 272 273 273 274 273 274 276 278 280 281 281 281 283 283 281 282 282 280 280 280 277 275 275 276 276 275 275
252 255 255 254 257 260 261 261 261 264 265 266 267 268 268 271 270 271 272 273 274 274 275 277 278 279 281 281 280 281 281 280 279 278 278 279 279 278 277 275 273 273 274 275 278
253 253 253 252 254 257 257 258 258 261 264 264 265 266 268 269 269 270 271 272 274 274 275 276 277 278 278 280 282 283 281 279 278 276 278 276 279 276 276 274 275 276 278 278 278
253 254 253 253 254 257 258 256 257 258 261 264 265 266 268 268 268 268 269 271 273 275 276 277 278 279 280 280 279 279 279 277 276 275 275 278 276 279 276 274 274 275 274 276 277
254 252 254 254 255 256 257 255 259 260 260 262 262 265 267 267 268 268 268 269 271 273 275 276 278 278 277 277 277 277 276 276 275 274 272 271 272 274 274 276 274 273 272 275 276
250 252 251 252 254 254 254 257 258 258 258 260 260 261 264 267 270 269 268 267 269 273 274 274 275 276 277 275 275 274 275 273 272 272 270 269 268 267 271 272 273 273 274 276 279
250 251 250 251 252 252 256 255 256 257 259 260 261 262 263 265 266 267 267 269 270 272 274 274 275 274 273 273 273 274 272 270 270 269 269 267 263 265 267 269 270 273 275 276 280
Height
10788 10790 10791 10792 10795 10798 10801 10802 10802 10800 10800 10799 10801 10802 10803 10801 10804 10802 10802 10801 10801 10801 10799 10798 10799 10797 10795 10795 10792 10790 10788 10791 10791 10790 10790 10789 10786 10785 10786 10785 10785 10782 10782 10778 10776
10773 10774 10777 10779 10782 10784 10788 10790 10789 10788 10787 10786 10789 10790 10791 10790 10789 10790 10790 10789 10790 10789 10789 10787 10786 10785 10784 10782 10779 10777 10775 10778 10778 10777 10778 10777 10775 10772 10774 10774 10775 10772 10771 10769 10765
10759 10760 10762 10766 10769 10771 10774 10776 10776 10775 10773 10774 10775 10777 10777 10776 10778 10777 10776 10777 10777 10777 10777 10775 10774 10773 10772 10770 10767 10765 10763 10765 10765 10765 10766 10765 10763 10759 10762 10763 10762 10761 10761 10757 10755
10744 10746 10747 10750 10753 10755 10760 10762 10760 10761 10760 10761 10761 10762 10763 10762 10765 10763 10763 10764 10764 10765 10764 10763 10762 10761 10760 10757 10755 10753 10751 10752 10752 10753 10754 10752 10750 10747 10748 10750 10751 10748 10747 10746 10745
10728 10729 10730 10733 10737 10741 10744 10747 10747 10745 10746 10747 10746 10748 10749 10749 10750 10752 10750 10750 10750 10750 10751 10751 10749 10748 10747 10745 10743 10740 10738 10738 10739 10741 10740 10738 10737 10733 10735 10736 10734 10734 10734 10733 10732
10711 10713 10714 10716 10720 10725 10730 10731 10731 10732 10731 10732 10732 10734 10735 10736 10735 10736 10738 10737 10736 10737 10737 10736 10735 10734 10732 10733 10731 10728 10725 10725 10725 10726 10726 10723 10724 10721 10719 10718 10717 10719 10721 10720 10717
10694 10696 10698 10701 10704 10708 10712 10714 10716 10719 10719 10719 10719 10719 10721 10720 10720 10720 10722 10723 10723 10724 10722 10722 10719 10717 10717 10717 10716 10716 10713 10711 10711 10710 10712 10707 10710 10707 10706 10703 10697 10700 10706 10702 10701
10677 10680 10683 10688 10691 10694 10696 10699 10700 10702 10703 10704 10704 10706 10706 10707 10705 10706 10706 10707 10707 10709 10709 10707 10705 10701 10702 10702 10703 10703 10700 10695 10698 10694 10696 10695 10692 10693 10690 10686 10682 10680 10685 10685 10684
10660 10665 10667 10671 10675 10679 10681 10683 10686 10687 10687 10688 10688 10692 10690 10692 10691 10691 10692 10691 10690 10691 10693 10692 10691 10686 10685 10688 10689 10688 10684 10682 10682 10679 10680 10680 10678 10674 10672 10668 10666 10661 10666 10665 10665
10643 10645 10649 10655 10658 10661 10666 10668 10670 10670 10672 10673 10674 10674 10676 10676 10676 10677 10676 10674 10674 10674 10674 10675 10675 10670 10668 10673 10673 10669 10667 10669 10666 10665 10664 10664 10663 10659 10653 10651 10647 10646 10647 10647 10646
10619 10624 10629 10633 10638 10638 10644 10649 10652 10655 10657 10656 10659 10659 10658 10659 10660 10659 10658 10657 10656 10655 10656 10656 10658 10653 10654 10654 10654 10653 10654 10654 10650 10652 10651 10647 10646 10643 10641 10636 10630 10627 10626 10627 10626
10599 10603 10608 10613 10618 10622 10626 10631 10633 10638 10642 10640 10640 10641 10640 10641 10643 10641 10641 10640 10636 10635 10635 10638 10640 10638 10636 10637 10636 10636 10637 10633 10633 10632 10632 10629 10630 10625 10622 10617 10613 10612 10611 10608 10606
10577 10581 10585 10589 10597 10602 10606 10610 10613 10617 10623 10621 10623 10626 10624 10625 10624 10623 10622 10621 10620 10616 10615 10619 10621 10618 10618 10619 10617 10619 10616 10614 10614 10611 10610 10613 10610 10611 10604 10597 10595 10592 10590 10587 10586
10555 10557 10560 10566 10575 10579 10582 10585 10590 10595 10597 10610 10605 10609 10608 10604 10604 10600 10603 10603 10602 10598 10596 10598 10597 10601 10600 10598 10600 10597 10595 10594 10593 10592 10590 10595 10592 10589 10591 10580 10576 10573 10570 10568 10566
10528 10532 10534 10540 10549 10554 10557 10561 10565 10570 10569 10587 10593 10588 10582 10582 10581 10581 10581 10583 10582 10581 10576 10578 10579 10579 10580 10578 10580 10578 10576 10574 10574 10573 10574 10570 10572 10565 10569 10561 10556 10554 10552 10550 10547
10503 10504 10507 10515 10524 10529 10531 10535 10537 10543 10554 10562 10568 10568 10563 10560 10558 10561 10560 10560 10560 10562 10559 10558 10561 10557 10558 10555 10556 10559 10557 10556 10554 10553 10556 10552 10552 10551 10553 10540 10534 10531 10529 10527 10525
10476 10479 10484 10487 10494 10500 10504 10507 10512 10526 10539 10534 10538 10541 10538 10538 10539 10541 10543 10541 10540 10538 10538 10538 10539 10537 10537 10536 10535 10536 10535 10531 10533 10534 10532 10536 10535 10534 10531 10520 10513 10509 10506 10505 10503
10444 10453 10454 10459 10465 10470 10474 10478 10492 10510 10509 10504 10509 10511 10512 10514 10517 10519 10520 10519 10517 10516 10516 10516 10515 10518 10515 10513 10514 10512 10511 10508 10503 10506 10508 10512 10515 10509 10506 10496 10491 10485 10481 10481 10478
10420 10422 10425 10429 10437 10442 10444 10453 10478 10479 10483 10479 10478 10481 10487 10489 10494 10493 10493 10494 10491 10493 10493 10494 10493 10496 10491 10491 10490 10486 10484 10484 10478 10480 10481 10488 10489 10488 10483 10472 10467 10461 10456 10455 10453
10388 10393 10398 10402 10407 10412 10418 10436 10448 10450 10455 10454 10450 10454 10460 10461 10464 10469 10468 10467 10465 10465 10463 10465 10474 10470 10471 10468 10466 10459 10456 10460 10453 10449 10450 10462 10462 10457 10460 10450 10438 10436 10433 10431 10425
10355 10363 10368 10374 10378 10386 10401 10410 10417 10421 10424 10423 10426 10426 10431 10434 10440 10442 10439 10435 10434 10438 10436 10436 10445 10449 10453 10447 10442 10439 10432 10432 10426 10421 10416 10422 10437 10429 10427 10419 10412 10411 10409 10405 10398
10324 10331 10337 10341 10347 10361 10381 10384 10388 10388 10395 10398 10401 10403 10406 10406 10410 10413 10412 10406 10404 10402 10406 10408 10414 10429 10424 10417 10418 10409 10411 10404 10395 10397 10390 10393 10411 10397 10395 10391 10388 10385 10385 10381 10379
10285 10294 10300 10305 10322 10338 10347 10352 10358 10363 10365 10370 10372 10376 10378 10378 10379 10381 10381 10378 10376 10378 10380 10383 10387 10396 10396 10389 10382 10382 10380 10378 10375 10368 10374 10367 10385 10373 10371 10365 10365 10364 10362 10359 10355
10245 10252 10265 10278 10296 10307 10312 10320 10329 10334 10336 10338 10344 10345 10347 10349 10349 10354 10352 10351 10350 10350 10354 10357 10361 10362 10364 10358 10349 10353 10353 10352 10349 10349 10351 10353 10350 10352 10346 10347 10344 10345 10342 10338 10335
10203 10220 10239 10252 10265 10267 10272 10287 10294 10301 10305 10310 10316 10320 10319 10318 10319 10322 10323 10326 10327 10328 10328 10328 10333 10328 10332 10326 10319 10323 10330 10331 10325 10329 10320 10339 10321 10340 10315 10327 10326 10325 10324 10322 10319
10177 10191 10211 10216 10230 10237 10244 10262 10262 10268 10275 10280 10282 10287 10288 10292 10290 10295 10299 10299 10303 10301 10301 10300 10303 10300 10305 10294 10293 10299 10310 10305 10301 10305 10302 10309 10316 10296 10309 10305 10306 10306 10306 10305 10303
10156 10167 10181 10195 10205 10212 10229 10226 10230 10236 10247 10252 10259 10260 10263 10261 10263 10267 10273 10275 10280 10282 10278 10275 10273 10272 10283 10268 10270 10278 10286 10282 10284 10281 10279 10285 10291 10286 10289 10289 10289 10286 10287 10287 10284